Hawthorne, CA

11:26 AM PDT on April 23, 2017 (GMT -0700)
Northrop-Hawthorne Municipal

Weather History for KHHR - December, 2012

Change the Weather History Date:

Wednesday, December 19, 2012

  Actual Average Record
Temperature  
Mean Temperature 55 °F -  
Max Temperature 62 °F 64 °F 83 °F (1954)
Min Temperature 48 °F 48 °F 35 °F (1946)
Degree Days  
Heating Degree Days 10    
Growing Degree Days 5 (Base 50)    
Moisture  
Dew Point 20 °F    
Average Humidity 29    
Maximum Humidity 43    
Minimum Humidity 13    
Precipitation  
Precipitation 0.00 in - - ()
Sea Level Pressure  
Sea Level Pressure 30.19 in    
Wind  
Wind Speed 6 mph (WNW)    
Max Wind Speed 14 mph    
Max Gust Speed 26 mph    
Visibility 10 miles    
Events      
Averages and records for this station are not official NWS values.
T = Trace of Precipitation, MM = Missing Value Source: NWS Daily Summary

Daily Weather History Graph

Daily Weather History Graph

Search for Another Location

Airport or City:

Trip Planner

Search our weather history database for the weather conditions in past years. The results will help you decide how hot, cold, wet, or windy it might be!

Date:

Astronomy

Dec. 19, 2012 Rise Set
Actual Time 6:53 AM PST 4:47 PM PST
Civil Twilight 6:26 AM PST 5:15 PM PST
Nautical Twilight 5:54 AM PST 5:46 PM PST
Astronomical Twilight 5:24 AM PST 6:17 PM PST
Moon 11:23 AM PST (12/19) No Moon Set
Length of Visible Light 10h 49m
Length of Day
9h 53m
Waxing Crescent, 46% of the Moon is Illuminated
Dec 19
Waxing Crescent
Dec 19
First Quarter
Dec 28
Full
Jan 4
Last Quarter
Jan 11
New

Hourly Weather History & Observations

Time (PST) Temp. Dew Point Humidity Pressure Visibility Wind Dir Wind Speed Gust Speed Precip Events Conditions
12:53 AM 48.9 °F 21.0 °F 33% 30.06 in 10.0 mi NW 13.8 mph 26.5 mph N/A   Clear
1:53 AM 48.9 °F 21.0 °F 33% 30.08 in 10.0 mi WNW 9.2 mph 23.0 mph N/A   Clear
2:53 AM 48.9 °F 21.9 °F 35% 30.10 in 10.0 mi NW 9.2 mph 17.3 mph N/A   Clear
3:53 AM 48.0 °F 23.0 °F 37% 30.11 in 10.0 mi NW 8.1 mph 16.1 mph N/A   Clear
4:53 AM 48.0 °F 23.0 °F 37% 30.10 in 10.0 mi NW 12.7 mph 23.0 mph N/A   Clear
5:53 AM 48.0 °F 21.9 °F 36% 30.13 in 10.0 mi NW 10.4 mph 18.4 mph N/A   Clear
6:53 AM 48.0 °F 21.0 °F 34% 30.14 in 10.0 mi NW 4.6 mph - N/A   Clear
7:53 AM 48.0 °F 21.0 °F 34% 30.18 in 10.0 mi Calm Calm - N/A   Clear
8:53 AM 50.0 °F 23.0 °F 35% 30.21 in 10.0 mi Variable 3.5 mph - N/A   Clear
9:53 AM 53.1 °F 17.1 °F 24% 30.23 in 10.0 mi Calm Calm - N/A   Clear
10:53 AM 55.0 °F 16.0 °F 22% 30.22 in 10.0 mi Calm Calm - N/A   Clear
11:53 AM 57.0 °F 14.0 °F 18% 30.21 in 10.0 mi West 4.6 mph - N/A   Clear
12:06 PM 57.2 °F 15.8 °F 20% 30.21 in 2.5 mi West 4.6 mph - N/A   Haze
12:14 PM 57.2 °F 15.8 °F 20% 30.21 in 10.0 mi SSW 3.5 mph - N/A   Clear
12:53 PM 59.0 °F 12.0 °F 16% 30.20 in 10.0 mi Calm Calm - N/A   Clear
1:53 PM 60.1 °F 17.1 °F 19% 30.19 in 10.0 mi Variable 4.6 mph - N/A   Clear
2:53 PM 61.0 °F 10.0 °F 13% 30.19 in 10.0 mi Calm Calm - N/A   Clear
3:53 PM 62.1 °F 10.9 °F 13% 30.20 in 10.0 mi Calm Calm - N/A   Clear
4:53 PM 59.0 °F 16.0 °F 19% 30.20 in 10.0 mi Calm Calm - N/A   Clear
5:53 PM 55.9 °F 25.0 °F 30% 30.22 in 10.0 mi Calm Calm - N/A   Clear
6:53 PM 54.0 °F 27.0 °F 35% 30.23 in 10.0 mi Calm Calm - N/A   Clear
7:53 PM 52.0 °F 27.0 °F 38% 30.24 in 10.0 mi Calm Calm - N/A   Clear
8:53 PM 51.1 °F 25.0 °F 36% 30.26 in 10.0 mi Calm Calm - N/A   Clear
9:53 PM 48.9 °F 27.0 °F 43% 30.28 in 10.0 mi Calm Calm - N/A   Clear
10:53 PM 50.0 °F 24.1 °F 36% 30.27 in 10.0 mi Variable 3.5 mph - N/A   Clear
11:53 PM 48.0 °F 21.0 °F 34% 30.26 in 10.0 mi Calm Calm - N/A   Clear